Tracking 19792 objects as of 17-Jul-2019
HD Live streaming from Space Station
objects crossing your sky now

SL-12 R/B(2)

Track SL-12 R/B(2) now!


NORAD ID: 25660
Int'l Code: 1999-013D
Perigee: 9,379.4 km
Apogee: 36,072.4 km
Inclination: 14.2 °
Period: 823.2 minutes
Semi major axis: 29096 km
RCS: 28.3579 m2 (large)
Launch date: March 21, 1999
Source: Commonwealth of Independent States (former USSR) (CIS)
Launch site: TYURATAM MISSILE AND SPACE COMPLEX (TTMTR)

Note: This is a ROCKET BODY
aabbcc
Your satellite tracking list
Your tracking list is empty




NASA's NSSDC Master Catalog

Two Line Element Set (TLE):
1 25660U 99013D   19196.32290866 -.00000107 +00000-0 +00000-0 0  9992
2 25660 014.1912 316.9786 4586921 049.3769 089.9366 01.74917319129850
Source of the keplerian elements: AFSPC